Winnerscup USA - trainer

Station: Trainer 25 Miles - T Race

Distance: 25 Miles

Release: 15-Apr-2018 09:35

Weather Release:    Arrival: clear crisp, cold

Wind at Release: variable     Wind at Arrival: variable

Temp at Release: °    Temp at Arrival: °

Lofts: 53

Birds: 170

Clocked: 164

Good Luck to Everyone!
Drops Pos Breeder Pigeon Name Color Sex Ent Arrival Speed To Win Eligible AB
101 Dream Team - VT 0610-AU17-JCZL Great Rendition BB C 3 10:27:54.00 831.758 00:05:05 Yes
102 Daehn/Miele - FL 3838-AU17-FOYS Bamboozled BB H 6 10:27:55.00 831.496 00:05:06 Yes
103 Aurelio Aranda - AZ 42211-AU17-AA Mind Game BB C 1 10:27:58.00 830.711 00:05:09 Yes
104 Sarrett Racing Pigeons - TX 7026-AU17-PPH Amarillo Queen BC H 2 10:28:01.00 829.928 00:05:12 Yes
105 Huan Qiu Zhang - NC 1709-AU17-JNC Kryto Run BB C 1 10:28:03.00 829.406 00:05:14 Yes
106 A D L Sheila - IL 0202-AU17-ADL National Two BB C 3 10:28:07.00 828.365 00:05:18 Yes
106 Nesler Boyz - CA 1764-AU17-TCH Tag Me Sold BB H 3 10:28:07.00 828.365 00:05:18 Yes
108 Johnny's Automotive - CA 32889-AU17-JEDD Blue Diva BB H 1 10:28:09.00 827.846 00:05:20 Yes
109 Tar Syndicate - PA 7815-AU17-TAR Packer BB H 2 10:28:13.00 826.809 00:05:24 Yes
110 Tanai Kantisiri - CA 2928-AU17-COM Platinum BB C 1 10:28:15.00 826.291 00:05:26 Yes
111 Jack's Loft - CA 4400-AU17-FOYS Peanuts BC C 6 10:28:20.00 825.000 00:05:31 Yes
112 A B C Loft2 - NY 59750-AU17-ARPU BamBoo BB C 3 10:29:32.00 806.846 00:06:43 Yes
113 Valhalla Loft - CA 0492-AU17-WSJ REIMAR BB C 1 10:30:15.00 796.380 00:07:26 Yes
113 Larry Lewis - OK 8158-AU17-TRPC White Matter WHGZ H 7 10:30:15.00 796.380 00:07:26 Yes
115 Joe Zarachowicz - MD 2270-AU17-CCC Shooter BB C 1 10:30:20.00 795.181 00:07:31 Yes
116 B E T Loft - LA 22500-AU17-AA Hollywood's Top Star BB C 1 10:30:21.00 794.941 00:07:32 Yes
117 Bolgar Loft - CA 7624-AU17-FTST Odessa BB H 4 10:30:27.00 793.508 00:07:38 Yes
118 Daehn/Miele - FL 0404-AU17-NWFI Litigator Man BB C 7 10:30:28.00 793.269 00:07:39 Yes
118 Aurelio Aranda - AZ 42210-AU17-AA SHREK BBWF C 2 10:30:28.00 793.269 00:07:39 Yes
120 Racing Pigeon Mall - WA 0716-AU17-RPM Phantom Starlight BROZ C 6 10:30:32.00 792.317 00:07:43 Yes
121 Bolgar Loft - CA 7641-AU17-FTST KID KIEV CP C 5 10:30:34.00 791.842 00:07:45 Yes
122 Daehn/Miele - FL 3841-AU17-FOYS Sweet Million BC C 8 10:30:38.00 790.893 00:07:49 Yes
123 Champ Camp - IN 0236-AU17-CHMP Classic Tipp BBWF C 9 10:30:43.00 789.710 00:07:54 Yes
124 Nesneb Racing Loft - AL 17142-AU17-MOB Cash Master BC H 3 10:30:48.00 788.530 00:07:59 Yes
125 Daehn/Miele - FL 3836-AU17-FOYS Lasting Impression BB C 9 10:30:52.00 787.589 00:08:03 Yes
125 Daehn/Miele - FL 3839-AU17-FOYS Melany BB H 10 10:30:52.00 787.589 00:08:03 Yes
127 Huan Qiu Zhang - NC 1711-AU17-JNC Bit Chain BCW C 2 10:30:55.00 786.885 00:08:06 Yes
128 Nesler Boyz - CA 1800-AU17-TCH Destined Choice RGRI H 4 10:30:56.00 786.651 00:08:07 Yes
129 Hi-Cal Connection - CA 0785-AU17-HCAL Under Seige PEN C 1 10:30:58.00 786.182 00:08:09 Yes
129 Sarrett Racing Pigeons - TX 7049-AU17-PPH Hailea's Run SMOK H 3 10:30:58.00 786.182 00:08:09 Yes
131 Bieche-Stevenson - CA 7444-AU17-BIEC Blue Million BBWF C 1 10:30:59.00 785.948 00:08:10 Yes
132 Tar Syndicate - PA 12035-AU17-LLP Syndicate BC H 3 10:31:07.00 784.081 00:08:18 Yes
133 G & L Loft - OR 2395-AU17-WPC Brick House RC H 3 10:31:09.00 783.615 00:08:20 Yes
134 A B C Loft2 - NY 59759-AU17-ARPU Cleopatra BC H 4 10:31:19.00 781.296 00:08:30 Yes
134 Nesneb Racing Loft - AL 17141-AU17-MOB In The Money BB H 4 10:31:19.00 781.296 00:08:30 Yes
136 Tanai Kantisiri - CA 2929-AU17-COM Prelude BB H 2 10:31:23.00 780.372 00:08:34 Yes
137 Ken Easley-Silvercreek - NM 5156-AU17-ESLY Leanna BCW H 2 10:31:30.00 778.761 00:08:41 Yes
138 Hi-Cal Connection - CA 0779-AU17-HAWI Mad Max BC C 2 10:31:36.00 777.385 00:08:47 Yes
139 Ken Easley-Silvercreek - NM 5151-AU17-ESLY Urban Kone BB C 3 10:31:39.00 776.699 00:08:50 Yes
140 Jack's Loft - CA 36711-AU17-ARPU Alamaar RGRZ H 7 10:31:46.00 775.103 00:08:57 Yes
141 Canto & Wiltz - MA 10977-AU17-AA Tanker BB C 2 10:31:49.00 774.421 00:09:00 Yes
142 1-Tonyloft - VA 5629-AU17-TONY Cinderella BC H 2 10:31:50.00 774.194 00:09:01 Yes
143 Ken Easley-Silvercreek - NM 5162-AU17-ESLY Ria BB C 4 10:32:09.00 769.904 00:09:20 Yes
144 Tar Syndicate - PA 7976-AU17-TAR Game to Win DC C 4 10:32:19.00 767.665 00:09:30 Yes
145 Ojibwe Loft - OK 0042-AU17-OJIB Desert Wren BC H 3 10:32:20.00 767.442 00:09:31 Yes
146 P/R Loft - CA 0280-AU17-GSF The Puritan BC C 2 10:32:23.00 766.773 00:09:34 Yes
147 A P C Loft - TX 17353-AU17-APC Miss HighTower BB H 3 10:32:26.00 766.106 00:09:37 Yes
148 Longjohn Loft - OK 1183-AU17-FOYS ACHILLES SIL C 1 10:32:43.00 762.345 00:09:54 Yes
149 G & L Loft - OR 2379-AU17-WPC Game Changer BB H 4 10:32:57.00 759.275 00:10:08 Yes
150 Joe Zarachowicz - MD 2284-AU17-CCC Never Too Late GR C 2 10:32:58.00 759.057 00:10:09 Yes
151 Joe Zarachowicz - MD 2261-AU17-CCC Castaway GR C 3 10:33:00.00 758.621 00:10:11 Yes
152 A B C Loft2 - NY 1441-AU17-BORO Manhattan BC C 5 10:33:03.00 757.967 00:10:14 Yes
153 Jack's Loft - CA 4397-AU17-FOYS Shawnee BBPD C 8 10:33:33.00 751.494 00:10:44 Yes
154 Ganus Family Loft - IN 0223-AU17-GFL Meteor Man DCWP C 4 10:33:42.00 749.574 00:10:53 Yes
155 Daehn/Miele - FL 3831-AU17-FOYS Kaapi BC C 11 10:33:46.00 748.724 00:10:57 Yes
156 Daehn/Miele - FL 3832-AU17-FOYS Redefined Exit BC C 12 10:35:34.00 726.472 00:12:45 Yes
157 Canto & Wiltz - MA 10998-AU17-AA Orbitaar BB C 3 10:36:05.00 720.327 00:13:16 Yes
158 Sofija Loft - IL 0067-AU17-BEKO Baš Bi Mi Sjelo Taman BBWF C 4 10:39:46.00 679.362 00:16:57 Yes
159 Johnny's Automotive - CA 32902-AU17-JEDD Roadie BB H 2 10:45:48.00 621.469 00:22:59 Yes
160 Hi-Cal Connection - CA 0758-AU17-HCAL Blue Rachel BBWF H 3 10:47:51.00 603.981 00:25:02 Yes
161 A P C Loft - TX 17377-AU17-APC Tantric Sleeper SMOK H 4 11:00:11.00 516.533 00:37:22 Yes
162 Sienna Loft - NC 37802-AU17-AA Admiral Halsey BB C 3 11:04:28.00 491.803 00:41:39 Yes
163 Ganus Family Loft - IN 0955-AU17-GFL Spritz BC C 5 11:04:37.00 490.980 00:41:48 Yes
164 Bieche-Stevenson - CA 7497-AU17-BIEC Maximus BB C 2 11:05:25.00 486.636 00:42:36 Yes

There are 262 bird records

Note: These Race Results are unofficial and subject to change until verified by the Race Committee and declared final.